Location: Alsip
(41.6689°N, 87.7387°W)
Time: 14:29:02
(UTC+00:00)

Cosmos 1535 Rocket - Pass Details

Date: 14 July 2020
Orbit: 947 x 1005 km, 83.0° (Epoch: 05 August)

Event Time Altitude Azimuth Distance (km) Brightness Sun altitude
Exits shadow 06:08:43 64° 215° (SW) 1,089 4.4 -26.7°
Maximum altitude 06:09:41 77° 278° (W) 1,014 4.5 -26.7°
Drops below altitude 10° 06:15:59 10° 5° (N) 2,733 7.9 -26.6°
Sets 06:18:29 0° 7° (N) 3,676 8.9 -26.5°
